• In Österreich
  • Länderverzeichnis
  • Für 7 Tage
  • Wassertemperatur
  • Satellitenkarten
  • Wetterkarte
  • News
  • Widgets
  • user-avatar
    Anmelden

    Stündliche Wetter Adelaide

    Heute, 13 Dezember, Mittwoch

    Zeit Temperatur Niederschläge Wind Luftdruck Luftfeuchtigkeit
    00:00 +28°C° 0 mm 4 m/S 752 mmHg 29%
    01:00 +28°C° 0 mm 4 m/S 751 mmHg 27%
    02:00 +28°C° 0 mm 4 m/S 751 mmHg 26%
    03:00 +28°C° 0 mm 5 m/S 750 mmHg 23%
    04:00 +29°C° 0 mm 5 m/S 750 mmHg 22%
    05:00 +30°C° 0 mm 5 m/S 750 mmHg 20%
    06:00 +32°C° 0 mm 6 m/S 750 mmHg 19%
    07:00 +34°C° 0 mm 6 m/S 750 mmHg 17%
    08:00 +36°C° 0 mm 7 m/S 750 mmHg 15%
    09:00 +40°C° 0 mm 7 m/S 749 mmHg 12%
    10:00 +40°C° 0 mm 7 m/S 749 mmHg 12%
    11:00 +40°C° 0 mm 7 m/S 749 mmHg 12%
    12:00 +41°C° 0 mm 7 m/S 749 mmHg 12%
    13:00 +38°C° 0 mm 8 m/S 749 mmHg 18%
    14:00 +35°C° 0 mm 8 m/S 749 mmHg 23%
    15:00 +33°C° 0 mm 9 m/S 749 mmHg 29%
    16:00 +32°C° 0 mm 7 m/S 749 mmHg 30%
    17:00 +32°C° 0 mm 5 m/S 749 mmHg 32%
    18:00 +30°C° 0 mm 3 m/S 749 mmHg 34%
    19:00 +29°C° 0 mm 4 m/S 750 mmHg 41%
    20:00 +27°C° 0 mm 4 m/S 750 mmHg 48%
    21:00 +26°C° 0 mm 5 m/S 750 mmHg 55%
    22:00 +23°C° 0 mm 5 m/S 750 mmHg 61%
    23:00 +22°C° 0 mm 5 m/S 751 mmHg 67%

    Morgen, 14 Dezember, Donnerstag

    Zeit Temperatur Niederschläge Wind Luftdruck Luftfeuchtigkeit
    00:00 +21°C° 0 mm 4 m/S 751 mmHg 73%
    01:00 +21°C° 0 mm 4 m/S 751 mmHg 76%
    02:00 +20°C° 0 mm 4 m/S 751 mmHg 79%
    03:00 +19°C° 0 mm 4 m/S 751 mmHg 81%
    04:00 +19°C° 0 mm 4 m/S 752 mmHg 80%
    05:00 +19°C° 0 mm 5 m/S 753 mmHg 79%
    06:00 +20°C° 0 mm 5 m/S 754 mmHg 78%
    07:00 +20°C° 0 mm 5 m/S 754 mmHg 71%
    08:00 +21°C° 0 mm 5 m/S 754 mmHg 64%
    09:00 +22°C° 0 mm 5 m/S 755 mmHg 57%
    10:00 +23°C° 0 mm 5 m/S 755 mmHg 52%
    11:00 +23°C° 0 mm 5 m/S 755 mmHg 48%
    12:00 +25°C° 0 mm 5 m/S 755 mmHg 44%
    13:00 +25°C° 0 mm 5 m/S 755 mmHg 44%
    14:00 +25°C° 0 mm 5 m/S 755 mmHg 44%
    15:00 +25°C° 0 mm 5 m/S 754 mmHg 45%
    16:00 +23°C° 0 mm 5 m/S 755 mmHg 48%
    17:00 +22°C° 0 mm 5 m/S 755 mmHg 51%
    18:00 +21°C° 0 mm 5 m/S 755 mmHg 54%
    19:00 +20°C° 0 mm 5 m/S 756 mmHg 58%
    20:00 +19°C° 0 mm 5 m/S 756 mmHg 62%
    21:00 +17°C° 0 mm 4 m/S 756 mmHg 66%
    22:00 +17°C° 0 mm 4 m/S 756 mmHg 68%
    23:00 +16°C° 0 mm 3 m/S 756 mmHg 70%

    übermorgen, 15 Dezember, Freitag

    Zeit Temperatur Niederschläge Wind Luftdruck Luftfeuchtigkeit
    00:00 +16°C° 0 mm 3 m/S 756 mmHg 71%
    01:00 +16°C° 0 mm 2 m/S 756 mmHg 73%
    02:00 +15°C° 0 mm 2 m/S 756 mmHg 75%
    03:00 +15°C° 0 mm 2 m/S 756 mmHg 77%
    04:00 +15°C° 0 mm 2 m/S 756 mmHg 74%
    05:00 +16°C° 0 mm 2 m/S 756 mmHg 72%
    06:00 +16°C° 0 mm 2 m/S 756 mmHg 69%
    07:00 +18°C° 0 mm 2 m/S 756 mmHg 59%
    08:00 +21°C° 0 mm 1 m/S 756 mmHg 49%
    09:00 +23°C° 0 mm 1 m/S 756 mmHg 39%
    10:00 +25°C° 0 mm 2 m/S 756 mmHg 37%
    11:00 +26°C° 0 mm 2 m/S 756 mmHg 34%
    12:00 +27°C° 0 mm 3 m/S 755 mmHg 31%
    13:00 +27°C° 0 mm 3 m/S 755 mmHg 31%
    14:00 +27°C° 0 mm 4 m/S 755 mmHg 31%
    15:00 +27°C° 0 mm 4 m/S 754 mmHg 31%
    16:00 +26°C° 0 mm 4 m/S 754 mmHg 34%
    17:00 +25°C° 0 mm 4 m/S 755 mmHg 37%
    18:00 +23°C° 0 mm 4 m/S 755 mmHg 40%
    19:00 +22°C° 0 mm 4 m/S 755 mmHg 48%
    20:00 +20°C° 0 mm 4 m/S 756 mmHg 55%
    21:00 +19°C° 0 mm 3 m/S 757 mmHg 62%
    22:00 +18°C° 0 mm 3 m/S 756 mmHg 66%
    23:00 +18°C° 0 mm 3 m/S 756 mmHg 71%

    16 Dezember, Samstag

    Zeit Temperatur Niederschläge Wind Luftdruck Luftfeuchtigkeit
    00:00 +17°C° 0 mm 2 m/S 756 mmHg 75%
    01:00 +17°C° 0 mm 2 m/S 756 mmHg 77%
    02:00 +17°C° 0 mm 2 m/S 756 mmHg 79%
    03:00 +16°C° 0 mm 2 m/S 756 mmHg 81%
    04:00 +17°C° 0 mm 2 m/S 756 mmHg 79%
    05:00 +17°C° 0 mm 2 m/S 757 mmHg 76%
    06:00 +18°C° 0 mm 2 m/S 757 mmHg 74%
    07:00 +20°C° 0 mm 2 m/S 757 mmHg 64%
    08:00 +23°C° 0 mm 1 m/S 757 mmHg 54%
    09:00 +25°C° 0 mm 1 m/S 758 mmHg 44%
    10:00 +27°C° 0 mm 2 m/S 757 mmHg 40%
    11:00 +28°C° 0 mm 2 m/S 757 mmHg 36%
    12:00 +29°C° 0 mm 3 m/S 757 mmHg 32%
    13:00 +29°C° 0 mm 3 m/S 756 mmHg 33%
    14:00 +29°C° 0 mm 4 m/S 756 mmHg 33%
    15:00 +29°C° 0 mm 5 m/S 756 mmHg 34%
    16:00 +28°C° 0 mm 5 m/S 756 mmHg 39%
    17:00 +27°C° 0 mm 5 m/S 756 mmHg 44%
    18:00 +25°C° 0 mm 5 m/S 756 mmHg 49%
    19:00 +23°C° 0 mm 5 m/S 757 mmHg 53%
    20:00 +21°C° 0 mm 5 m/S 757 mmHg 58%
    21:00 +20°C° 0 mm 5 m/S 757 mmHg 62%
    22:00 +20°C° 0 mm 5 m/S 757 mmHg 63%
    23:00 +19°C° 0 mm 4 m/S 756 mmHg 64%

    17 Dezember, Sonntag

    Zeit Temperatur Niederschläge Wind Luftdruck Luftfeuchtigkeit
    00:00 +19°C° 0 mm 4 m/S 756 mmHg 65%
    01:00 +19°C° 0 mm 4 m/S 755 mmHg 65%
    02:00 +19°C° 0 mm 3 m/S 755 mmHg 65%
    03:00 +18°C° 0 mm 3 m/S 755 mmHg 64%
    04:00 +19°C° 0 mm 3 m/S 755 mmHg 62%
    05:00 +20°C° 0 mm 3 m/S 755 mmHg 60%
    06:00 +21°C° 0 mm 4 m/S 755 mmHg 58%
    07:00 +25°C° 0 mm 4 m/S 755 mmHg 49%
    08:00 +28°C° 0 mm 4 m/S 755 mmHg 41%
    09:00 +30°C° 0 mm 4 m/S 755 mmHg 33%
    10:00 +33°C° 0 mm 3 m/S 754 mmHg 29%
    11:00 +35°C° 0 mm 3 m/S 754 mmHg 25%
    12:00 +37°C° 0 mm 3 m/S 753 mmHg 21%
    13:00 +38°C° 0 mm 3 m/S 753 mmHg 20%
    14:00 +38°C° 0 mm 3 m/S 752 mmHg 19%
    15:00 +39°C° 0 mm 3 m/S 752 mmHg 19%
    16:00 +37°C° 0 mm 3 m/S 752 mmHg 21%
    17:00 +36°C° 0 mm 3 m/S 751 mmHg 24%
    18:00 +35°C° 0 mm 3 m/S 751 mmHg 26%
    19:00 +34°C° 0 mm 4 m/S 751 mmHg 27%
    20:00 +33°C° 0 mm 4 m/S 751 mmHg 27%
    21:00 +32°C° 0 mm 4 m/S 751 mmHg 28%
    22:00 +33°C° 0 mm 4 m/S 751 mmHg 26%
    23:00 +33°C° 0 mm 4 m/S 750 mmHg 25%

    18 Dezember, Montag

    Zeit Temperatur Niederschläge Wind Luftdruck Luftfeuchtigkeit
    00:00 +33°C° 0 mm 4 m/S 750 mmHg 23%
    01:00 +33°C° 0 mm 4 m/S 750 mmHg 22%
    02:00 +33°C° 0 mm 5 m/S 749 mmHg 21%
    03:00 +33°C° 0 mm 5 m/S 749 mmHg 20%
    04:00 +33°C° 0 mm 5 m/S 749 mmHg 20%
    05:00 +33°C° 0 mm 5 m/S 749 mmHg 20%
    06:00 +33°C° 0 mm 4 m/S 750 mmHg 19%
    07:00 +34°C° 0 mm 4 m/S 750 mmHg 19%
    08:00 +35°C° 0 mm 4 m/S 750 mmHg 19%
    09:00 +36°C° 0 mm 3 m/S 750 mmHg 19%
    10:00 +37°C° 0 mm 4 m/S 749 mmHg 19%
    11:00 +38°C° 0 mm 4 m/S 749 mmHg 18%
    12:00 +40°C° 0 mm 4 m/S 748 mmHg 17%
    13:00 +40°C° 0,1 mm 4 m/S 747 mmHg 18%
    14:00 +40°C° 0,1 mm 4 m/S 746 mmHg 18%
    15:00 +40°C° 0,1 mm 4 m/S 745 mmHg 18%
    16:00 +40°C° 0 mm 5 m/S 745 mmHg 19%
    17:00 +39°C° 0 mm 5 m/S 745 mmHg 21%
    18:00 +37°C° 0 mm 5 m/S 744 mmHg 22%
    19:00 +35°C° 0 mm 6 m/S 745 mmHg 29%
    20:00 +33°C° 0 mm 7 m/S 745 mmHg 36%
    21:00 +31°C° 0 mm 8 m/S 745 mmHg 43%
    22:00 +29°C° 0,4 mm 7 m/S 746 mmHg 52%
    23:00 +28°C° 0,4 mm 6 m/S 746 mmHg 61%
    Mehr zeigen